DW1065 Askim NO current weather conditions

sailwx.info

Wind from 167

Air temperature 15.6° C
Dewpoint 14.9° C

Last reported at 2019-Aug-24 08:06 UTC.
Time now 2019-Aug-24 09:09 UTC

Location: N 59°36' E 011°11'.
View on Google Maps.

See reports from other nearby stations

  
Tides and Currents Weather Stations Pressure Air Temp Water Temp Dewpoint Dewpoint Depression Visibility Wind Speed Wind Dir Waves Ship Positions
date/time (UTC)wind fromknots sea level pressurealtimeterstation pressurevisibilityair tempwater tempwave heightnotes
2019-Aug-24 08:06 167 15.6
2019-Aug-24 07:56 167 15.0
2019-Aug-24 07:46 167 15.0
2019-Aug-24 07:36 167 15.0
2019-Aug-24 07:26 196 15.0
2019-Aug-24 07:16 194 0 gusting 2 15.0
2019-Aug-24 07:06 194 14.4
2019-Aug-24 06:56 194 14.4
2019-Aug-24 06:46 194 14.4
2019-Aug-24 06:36 194 13.9
2019-Aug-24 06:26 194 13.9
2019-Aug-24 06:16 194 13.9
2019-Aug-24 06:06 194 0 gusting 2 13.3
2019-Aug-24 05:56 194 13.3
2019-Aug-24 05:46 194 12.8
2019-Aug-24 05:36 194 12.8
2019-Aug-24 05:26 194 12.8
2019-Aug-24 05:16 194 12.2
2019-Aug-24 05:06 194 12.2
2019-Aug-24 04:56 194 12.2
2019-Aug-24 04:46 194 12.2
2019-Aug-24 04:36 194 11.7
2019-Aug-24 04:26 194 11.7
2019-Aug-24 04:16 194 11.7
2019-Aug-24 04:06 194 11.7
2019-Aug-24 03:56 194 11.7
2019-Aug-24 03:46 194 11.7
2019-Aug-24 03:36 194 11.7
2019-Aug-24 03:26 194 11.7
2019-Aug-24 03:16 194 11.7
2019-Aug-24 03:06 194 11.7
2019-Aug-24 02:56 194 12.2
2019-Aug-24 02:46 194 12.2
2019-Aug-24 02:36 194 12.2
2019-Aug-24 02:26 194 12.2
2019-Aug-24 02:16 194 12.2
2019-Aug-24 02:06 194 12.2
2019-Aug-24 01:56 194 12.2
2019-Aug-24 01:46 194 12.2
2019-Aug-24 01:36 194 12.8
2019-Aug-24 01:26 194 12.8
2019-Aug-24 01:16 194 12.8
2019-Aug-24 01:06 194 12.8
2019-Aug-24 00:56 194 12.8
2019-Aug-24 00:46 194 13.3
2019-Aug-24 00:36 194 13.3
2019-Aug-24 00:26 194 13.3
2019-Aug-24 00:16 194 13.9
2019-Aug-24 00:06 194 13.9
2019-Aug-23 23:56 194 13.9
2019-Aug-23 23:46 194 13.9
2019-Aug-23 23:36 194 13.9
2019-Aug-23 23:26 194 14.4
2019-Aug-23 23:16 194 14.4
2019-Aug-23 23:06 194 14.4
2019-Aug-23 22:56 194 14.4
2019-Aug-23 22:46 194 14.4
2019-Aug-23 22:36 194 15.0
2019-Aug-23 22:26 194 15.0
2019-Aug-23 22:16 194 15.0
2019-Aug-23 22:06 202 1 gusting 4 15.0
2019-Aug-23 21:56 202 0 gusting 2 15.0
2019-Aug-23 21:46 202 15.0
2019-Aug-23 21:36 202 15.0
2019-Aug-23 21:26 202 15.0
2019-Aug-23 21:16 202 15.0
2019-Aug-23 21:06 236 15.6
2019-Aug-23 20:56 236 15.6
2019-Aug-23 20:46 236 15.6
2019-Aug-23 20:36 236 16.1
2019-Aug-23 20:26 236 16.1
2019-Aug-23 20:16 236 16.7
2019-Aug-23 20:06 236 16.7
2019-Aug-23 19:56 236 16.7
2019-Aug-23 19:46 236 17.2
2019-Aug-23 19:36 239 0 gusting 2 17.2
2019-Aug-23 19:26 239 17.2
2019-Aug-23 19:16 239 17.8
2019-Aug-23 19:06 238 0 gusting 4 17.8
2019-Aug-23 18:56 231 0 gusting 2 17.8
2019-Aug-23 18:46 233 0 gusting 4 18.3
2019-Aug-23 18:36 243 0 gusting 2 18.3
2019-Aug-23 18:26 242 18.3
2019-Aug-23 18:16 219 0 gusting 4 18.9
2019-Aug-23 18:06 219 0 gusting 5 18.9
2019-Aug-23 17:56 252 0 gusting 4 19.4
2019-Aug-23 17:46 209 1 gusting 6 19.4
2019-Aug-23 17:36 232 0 gusting 2 20.0
2019-Aug-23 17:26 235 20.0
2019-Aug-23 17:16 235 0 gusting 4 20.6
2019-Aug-23 17:06 241 0 gusting 4 21.1
2019-Aug-23 16:56 235 0 gusting 6 21.1
2019-Aug-23 16:46 245 0 gusting 6 21.7
2019-Aug-23 16:36 252 1 gusting 6 21.7
2019-Aug-23 16:26 292 0 gusting 2 21.7
2019-Aug-23 16:16 243 1 gusting 4 22.2
2019-Aug-23 16:06 236 0 gusting 4 22.2
2019-Aug-23 15:56 248 1 gusting 4 22.2
2019-Aug-23 15:46 281 1 gusting 6 22.2
2019-Aug-23 15:36 285 0 gusting 4 21.7
2019-Aug-23 15:26 295 0 gusting 5 21.7
2019-Aug-23 15:16 304 0 gusting 6 21.7
2019-Aug-23 15:06 290 0 gusting 7 21.7
2019-Aug-23 14:56 301 1 gusting 13 21.7
2019-Aug-23 14:46 255 1 gusting 13 22.2
2019-Aug-23 14:36 255 1 gusting 7 22.8
2019-Aug-23 14:26 273 4 gusting 7 22.8
2019-Aug-23 14:16 281 1 gusting 6 22.8
2019-Aug-23 14:06 256 2 gusting 7 22.8
2019-Aug-23 13:56 247 1 gusting 6 22.8
2019-Aug-23 13:46 224 4 gusting 8 22.8
2019-Aug-23 13:36 221 0 gusting 5 22.8
2019-Aug-23 13:26 277 2 gusting 6 22.8
2019-Aug-23 13:16 281 0 gusting 6 22.2
2019-Aug-23 13:06 272 1 gusting 6 22.2
2019-Aug-23 12:56 314 2 gusting 7 22.2
2019-Aug-23 12:46 211 1 gusting 6 21.7
2019-Aug-23 12:36 303 2 gusting 10 21.7
2019-Aug-23 12:26 328 1 gusting 5 21.7
2019-Aug-23 12:16 236 0 gusting 6 21.1
2019-Aug-23 12:06 297 2 gusting 6 21.1
2019-Aug-23 11:56 287 1 gusting 7 21.1
2019-Aug-23 11:46 238 1 gusting 6 21.1
2019-Aug-23 11:36 226 1 gusting 6 20.6
2019-Aug-23 11:26 265 1 gusting 5 20.6
2019-Aug-23 11:16 255 1 gusting 6 20.6
2019-Aug-23 11:06 289 0 gusting 6 20.0
2019-Aug-23 10:56 271 1 gusting 6 20.0
2019-Aug-23 10:46 252 2 gusting 7 20.0
2019-Aug-23 10:36 267 4 gusting 8 19.4
2019-Aug-23 10:26 219 1 gusting 5 18.9
2019-Aug-23 10:16 268 1 gusting 6 18.9
2019-Aug-23 10:06 257 1 gusting 7 18.9
2019-Aug-23 09:56 243 0 gusting 6 18.9
2019-Aug-23 09:46 230 0 gusting 6 18.9
2019-Aug-23 09:36 230 1 gusting 7 18.3
2019-Aug-23 09:26 232 2 gusting 10 17.8
2019-Aug-23 09:16 238 3 gusting 11 17.8
2019-Aug-23 09:06 290 0 gusting 8 17.2
2019-Aug-23 08:56 233 2 gusting 10 17.2
2019-Aug-23 08:46 239 4 gusting 12 17.2
2019-Aug-23 08:36 226 0 gusting 7 17.2
2019-Aug-23 08:26 246 1 gusting 11 16.7
2019-Aug-23 08:16 217 2 gusting 8 16.7
2019-Aug-23 08:06 228 1 gusting 6 16.1
2019-Aug-23 07:56 233 1 gusting 4 16.1
2019-Aug-23 07:46 250 0 gusting 2 16.1
2019-Aug-23 07:36 234 1 gusting 6 16.1
2019-Aug-23 07:26 205 1 gusting 7 16.1
2019-Aug-23 07:16 258 0 gusting 7 16.1
2019-Aug-23 07:06 255 3 gusting 7 16.1
2019-Aug-23 06:56 212 2 gusting 8 15.6
2019-Aug-23 06:46 307 2 gusting 13 15.6
2019-Aug-23 06:36 192 0 gusting 13 15.6
2019-Aug-23 06:26 212 2 gusting 7 15.6
2019-Aug-23 06:16 216 3 gusting 10 15.6
2019-Aug-23 06:06 210 3 gusting 6 15.6
2019-Aug-23 05:56 231 1 gusting 8 15.6
2019-Aug-23 05:46 220 3 gusting 6 15.0
2019-Aug-23 05:36 252 0 gusting 5 15.0
2019-Aug-23 05:26 240 0 gusting 6 15.0
2019-Aug-23 05:16 204 1 gusting 7 15.0
2019-Aug-23 05:06 221 1 gusting 4 14.4
2019-Aug-23 04:56 229 14.4
2019-Aug-23 04:46 229 0 gusting 4 14.4
2019-Aug-23 04:36 189 0 gusting 4 13.9
2019-Aug-23 04:26 188 13.9
2019-Aug-23 04:16 171 0 gusting 6 13.9
2019-Aug-23 04:06 163 0 gusting 5 13.9
2019-Aug-23 03:56 166 0 gusting 5 13.9
2019-Aug-23 03:46 163 1 gusting 5 13.9
2019-Aug-23 03:36 178 0 gusting 7 13.9
2019-Aug-23 03:26 179 3 gusting 7 13.9
2019-Aug-23 03:16 179 2 gusting 6 13.9
2019-Aug-23 03:06 198 4 gusting 8 13.3
2019-Aug-23 02:56 199 2 gusting 8 13.3
2019-Aug-23 02:46 201 2 gusting 10 13.3
2019-Aug-23 02:36 210 2 gusting 10 13.3
2019-Aug-23 02:26 199 2 gusting 8 13.3
2019-Aug-23 02:16 186 2 gusting 7 13.3
2019-Aug-23 02:06 215 3 gusting 10 13.3
2019-Aug-23 01:56 229 2 gusting 7 13.3
2019-Aug-23 01:46 218 1 gusting 6 12.8
2019-Aug-23 01:36 171 4 gusting 7 12.8
2019-Aug-23 01:26 188 3 gusting 7 12.8
2019-Aug-23 01:16 194 1 gusting 6 12.8
2019-Aug-23 01:06 176 1 gusting 5 12.8
2019-Aug-23 00:56 188 0 gusting 5 12.8
2019-Aug-23 00:46 215 1 gusting 5 12.8
2019-Aug-23 00:36 202 1 gusting 5 12.8
2019-Aug-23 00:26 189 0 gusting 2 12.2
2019-Aug-23 00:16 215 0 gusting 2 12.2
2019-Aug-23 00:06 217 12.2
2019-Aug-22 23:56 217 0 gusting 4 12.2
2019-Aug-22 23:46 217 0 gusting 5 12.2
2019-Aug-22 23:36 226 1 gusting 6 12.2
2019-Aug-22 23:26 234 1 gusting 7 12.2
2019-Aug-22 23:06 253 2 gusting 7 12.2
2019-Aug-22 22:56 197 1 gusting 6 12.2
2019-Aug-22 22:47 224 0 gusting 2 12.2
2019-Aug-22 22:36 224 0 gusting 4 12.8
2019-Aug-22 22:26 233 0 gusting 2 12.8
2019-Aug-22 22:16 239 0 gusting 2 12.8
2019-Aug-22 22:06 239 0 gusting 5 12.8
2019-Aug-22 21:56 205 12.8
2019-Aug-22 21:47 207 1 gusting 6 13.3
2019-Aug-22 21:36 221 1 gusting 4 13.3
2019-Aug-22 21:26 230 13.3
2019-Aug-22 21:17 225 0 gusting 5 13.3
2019-Aug-22 21:06 224 0 gusting 5 13.3
2019-Aug-22 20:56 217 0 gusting 6 13.3
2019-Aug-22 20:46 186 2 gusting 6 13.3
2019-Aug-22 20:36 216 0 gusting 5 13.3
2019-Aug-22 20:26 218 0 gusting 6 13.3
2019-Aug-22 20:17 200 0 gusting 5 13.3
2019-Aug-22 20:06 247 0 gusting 5 13.3
2019-Aug-22 19:56 219 1 gusting 5 13.3
2019-Aug-22 19:46 210 2 gusting 7 13.3
2019-Aug-22 19:36 212 2 gusting 8 13.9
2019-Aug-22 19:26 214 3 gusting 8 13.9
2019-Aug-22 19:16 233 2 gusting 7 13.9
2019-Aug-22 19:06 217 1 gusting 6 13.9
2019-Aug-22 18:56 249 0 gusting 8 13.9
2019-Aug-22 18:47 242 1 gusting 13 13.9
2019-Aug-22 18:36 218 5 gusting 10 13.9
2019-Aug-22 18:26 237 4 gusting 10 13.9
2019-Aug-22 18:17 216 1 gusting 10 13.9
2019-Aug-22 18:06 231 3 gusting 10 13.9
2019-Aug-22 17:56 231 2 gusting 13 13.9
2019-Aug-22 17:47 238 6 gusting 13 13.9
2019-Aug-22 17:36 222 6 gusting 10 13.9
2019-Aug-22 17:26 208 4 gusting 13 13.9
2019-Aug-22 17:16 228 4 gusting 11 13.9
2019-Aug-22 17:06 236 4 gusting 13 13.9
2019-Aug-22 16:56 233 5 gusting 15 13.9
2019-Aug-22 16:47 250 4 gusting 17 13.9
2019-Aug-22 16:36 232 6 gusting 14 13.9
2019-Aug-22 16:26 239 4 gusting 11 13.9
2019-Aug-22 16:17 270 5 gusting 13 13.9
2019-Aug-22 16:07 216 5 gusting 13 13.9
2019-Aug-22 15:56 218 4 gusting 19 13.9
2019-Aug-22 15:46 206 4 gusting 13 13.9
2019-Aug-22 15:36 224 5 gusting 11 13.9
2019-Aug-22 15:26 218 5 gusting 14 13.9
2019-Aug-22 15:16 202 4 gusting 15 13.9
2019-Aug-22 15:06 213 6 gusting 15 13.9
2019-Aug-22 14:56 210 7 gusting 15 13.9
2019-Aug-22 14:46 198 10 gusting 19 13.9
2019-Aug-22 14:36 169 5 gusting 14 13.9
2019-Aug-22 14:26 187 4 gusting 11 14.4
2019-Aug-22 14:16 174 4 gusting 11 14.4
2019-Aug-22 14:06 184 4 gusting 10 14.4
2019-Aug-22 13:56 218 4 gusting 13 14.4
2019-Aug-22 13:46 211 4 gusting 13 14.4
2019-Aug-22 13:36 228 3 gusting 8 14.4
2019-Aug-22 13:26 221 5 gusting 11 14.4
2019-Aug-22 13:16 221 6 gusting 17 14.4
2019-Aug-22 13:06 193 4 gusting 12 15.0
2019-Aug-22 12:56 224 4 gusting 10 15.0
2019-Aug-22 12:46 215 5 gusting 13 15.0
2019-Aug-22 12:36 204 4 gusting 13 15.0
2019-Aug-22 12:26 220 5 gusting 13 15.0
2019-Aug-22 12:16 213 5 gusting 13 15.0
2019-Aug-22 12:06 192 4 gusting 13 15.0
2019-Aug-22 11:56 242 6 gusting 11 15.0
2019-Aug-22 11:46 218 3 gusting 12 15.0
2019-Aug-22 11:36 183 2 gusting 10 15.0
2019-Aug-22 11:26 198 3 gusting 10 15.0
2019-Aug-22 11:17 181 3 gusting 7 15.0
2019-Aug-22 11:06 232 2 gusting 8 15.0
2019-Aug-22 10:56 217 3 gusting 13 15.0
2019-Aug-22 10:46 189 4 gusting 8 15.6
2019-Aug-22 10:36 220 3 gusting 8 15.0
2019-Aug-22 10:26 198 1 gusting 5 15.0
2019-Aug-22 10:16 222 0 gusting 4 15.0
2019-Aug-22 10:06 217 0 gusting 6 14.4
2019-Aug-22 09:56 265 0 gusting 6 14.4
2019-Aug-22 09:46 179 2 gusting 7 14.4
2019-Aug-22 09:36 203 2 gusting 6 14.4
2019-Aug-22 09:26 187 1 gusting 8 14.4
2019-Aug-22 09:16 189 1 gusting 7 14.4
2019-Aug-22 09:06 193 2 gusting 7 14.4